User: anonymous   Login
Location: Parc des �les de St-Timoth�e
(45.2924°N, 74.0481°W)
Time: 10:26:06
(UTC-05:00)
Language:

Cosmos 2173 Rocket - Orbit

View from above orbital plane
View from above orbital plane
View from above satellite
View from above satellite

Ground track
Ground track

The orbit data is extracted from the following two-line orbital elements,

1 21797U 91081B   16344.20168086  .00000029  00000-0  13655-4 0  9999
2 21797  82.9538 203.2728 0036773 260.7678 239.1890 13.77387267258243
Epoch (UTC): 09 December 2016 04:50:25
Eccentricity: 0.0036773
inclination: 82.9538°
perigee height: 946 km
apogee height: 1000 km
right ascension of ascending node: 203.2728°
argument of perigee: 260.7678°
revolutions per day: 13.77387267
mean anomaly at epoch: 239.1890°
orbit number at epoch: 25824

The dashed part of the orbit path shows where the satellite is in the earth's shadow,  

DLR